Location: Unspecified
(0.0000°N, 0.0000°E)
Time: 02:23:09
(UTC+00:00)

S-56A Canister/Altair - Pass Details

Date: 01 October 2020
Orbit: 633 x 2499 km, 38.9° (Epoch: 25 October)

Event Time Altitude Azimuth Distance (km) Brightness Sun altitude
Rises 20:04:23 0° 330° (NNW) 5,303 12.1 -33.7°
Reaches altitude 10° 20:09:21 10° 343° (NNW) 3,946 11.2 -34.9°
Enters shadow 20:13:19 18° 3° (N) 3,011 10.4 -35.9°
